Location: Clifton Park
(41.4873°N, 81.8024°W)
Time: 13:27:06
(UTC+00:00)

Meteor 2-10 - Pass Details

Date: 21 January 2020
Orbit: 737 x 869 km, 81.2° (Epoch: 26 February)

Event Time Altitude Azimuth Distance (km) Brightness Sun altitude
Rises 11:04:10 0° 187° (S) 3,402 7.4 -19.3°
Reaches altitude 10° 11:06:36 10° 187° (S) 2,455 6.7 -18.9°
Maximum altitude 11:12:11 87° 98° (E) 830 4.1 -17.8°
Drops below altitude 10° 11:17:36 10° 10° (N) 2,387 6.5 -16.9°
Sets 11:19:57 0° 11° (N) 3,301 7.3 -16.4°
